Regional Weather Roundup
Issued by NWS

Home | Current Version | Previous Version | Text Only | Print | Product List | Glossary On
Versions: 1 2 3 4 5 6 7 8 9 10 11 12 13 14 15 16 17 18 19 20 21 22 23 24 25 26 27 28 29 30 31 32 33 34 35 36 37 38 39 40 41 42 43 44 45 46 47 48 49 50
000
ASUS43 KDMX 291507
RWRIA

WEATHER ROUNDUP FOR IOWA
NATIONAL WEATHER SERVICE DES MOINES IA
900 AM CST THU JAN 29 2015

NOTE: "FAIR" INDICATES FEW OR NO CLOUDS BELOW 12,000 FEET WITH NO
SIGNIFICANT WEATHER AND/OR OBSTRUCTIONS TO VISIBILITY.

* - THESE STATIONS ARE NOT NWS STATIONS...THUS NOT UNDER NWS
QUALITY CONTROL.  THEY ALSO DO NOT REPORT WEATHER SUCH
AS PRECIPITATION OR FOG.

IAZ001>003-012>014-020>022-031>034-043>046-291600-
   NORTHWEST IOWA

CITY           SKY/WX    TMP DP  RH WIND       PRES   REMARKS
CARROLL *      CLOUDY    32  28  86 N29G36    30.23R WCI  18
CHEROKEE *     CLOUDY    32  27  80 N17G25    30.28R WCI  21
DENISON *      CLOUDY    32  28  86 NW21G29   30.26R WCI  20
LE MARS *      CLOUDY    32  27  80 N15G23    30.32R WCI  22
ORANGE CITY *  CLOUDY    32  27  80 N13G24    30.30R WCI  22
SHELDON *      CLOUDY    30  28  93 NW23      30.28R WCI  17
SIOUX CITY     CLOUDY    34  26  72 N18G35    30.33R WCI  23
SPENCER        CLOUDY    32  24  72 NW26G33   30.25R WCI  18
STORM LAKE *   CLOUDY    30  27  86 N29G40    30.25R WCI  15
$$

IAZ055>058-069>071-079>083-090>094-291600-
   SOUTHWEST IOWA

CITY           SKY/WX    TMP DP  RH WIND       PRES   REMARKS
ATLANTIC *     CLOUDY    36  28  75 N21G35    30.25R WCI  24
AUDUBON *      CLOUDY    34  28  80 NW23G31   30.24R WCI  22
CLARINDA *     CLOUDY    37  28  70 NW21G29   30.28R WCI  27
COUNCIL BLFS * CLOUDY    36  28  75 N24G32    30.28R WCI  24
CRESTON *      CLOUDY    34  30  86 NW24G33   30.20R WCI  21
HARLAN  *      CLOUDY    34  32  93 NW24G32   30.29R WCI  21
LAMONI         CLOUDY    34  31  88 NW21G28   30.18R WCI  22
RED OAK *      CLOUDY    36  28  75 NW20G28   30.27R WCI  25
SHENANDOAH *   CLOUDY    37  27  65 NW32G43   30.29R WCI  25
$$

IAZ047>049-059>061-072>074-084-291600-
   CENTRAL IOWA

CITY           SKY/WX    TMP DP  RH WIND       PRES   REMARKS
AMES           CLOUDY    33  27  78 NW21G36   30.17R WCI  21
ANKENY *       CLOUDY    34  30  86 NW15G23   30.18R WCI  24
CHARITON *     CLOUDY    34  30  86 NW20G29   30.16R WCI  22
DES MOINES     CLOUDY    35  29  78 NW23G32   30.18R WCI  23
GRINNELL*      CLOUDY    34  30  86 NW21G30   30.11R WCI  22
KNOXVILLE *    CLOUDY    34  30  86 NW20G31   30.14R WCI  22
MARSHALLTOWN   CLOUDY    33  29  85 NW26G39   30.11R WCI  20
PELLA *        CLOUDY    34  30  86 NW22G32   30.15R WCI  22
PERRY *          N/A     34  28  80 NW23G36   30.21R WCI  22
$$

IAZ004>006-015-016-023>025-035-036-291600-
   NORTH CENTRAL IOWA

CITY           SKY/WX    TMP DP  RH WIND       PRES   REMARKS
ALGONA *       CLOUDY    30  27  86 N20G40    30.20R WCI  18
CLARION *      CLOUDY    30  30 100 NW26G37   30.16R WCI  16
ESTHERVILLE    CLOUDY    28  23  81 N31G46    30.23R WCI  12
FORT DODGE *   CLOUDY    30  25  80 NW16G29   30.20R WCI  19
MASON CITY     CLOUDY    30  26  85 NW25G37   30.14R WCI  16
FOREST CITY *  CLOUDY    32  28  86 NW28G35   30.14R WCI  18
IOWA FALLS *   CLOUDY    32  28  86 NW25G37   30.14R WCI  19
$$

IAZ007>011-017>019-026>030-037>042-050>054-066-291600-
   NORTHEAST IOWA

CITY           SKY/WX    TMP DP  RH WIND       PRES   REMARKS
CEDAR RAPIDS   CLOUDY    35  32  88 NW17G26   30.04R WCI  25
CHARLES CITY * CLOUDY    32  32 100 NW21G31   30.09R WCI  20
CLINTON *      CLOUDY    34  27  75 NW16      30.01R WCI  23
DECORAH *      CLOUDY    34  28  80 NW22      30.01R WCI  22
DUBUQUE        CLOUDY    32  28  85 N15       29.97R WCI  22
MONTICELLO *   CLOUDY    34  32  93 MISG      30.01R
OELWEIN *      FLURRIES  34  32  93 NW24G31   30.04R WCI  21
WATERLOO       CLOUDY    33  31  92 NW25G31   30.07R WCI  20
$$

IAZ064-065-067-068-078-291600-
   EAST CENTRAL IOWA

CITY           SKY/WX    TMP DP  RH WIND       PRES   REMARKS
DAVENPORT      CLOUDY    34  27  75 NW20      30.00R WCI  23
IOWA CITY      CLOUDY    35  31  85 NW14G22   30.06R WCI  26
MT. PLEASANT * CLOUDY    36  32  87 NW10G18   30.07R WCI  28
MUSCATINE *    CLOUDY    36  30  80 NW14G20   30.05R WCI  27
QUAD CITIES    CLOUDY    35  28  75 NW14G22   30.00R WCI  26
$$

IAZ062-063-075>077-085>089-095>099-291600-
   SOUTHEAST IOWA

CITY           SKY/WX    TMP DP  RH WIND       PRES   REMARKS
BURLINGTON     CLOUDY    36  31  82 NW14G25   30.04R WCI  27
FAIRFIELD *    CLOUDY    36  32  87 NW23      30.08R WCI  24
FORT MADISON * CLOUDY    36  32  87 NW16G25   30.07R WCI  26
KEOKUK *       CLOUDY    37  32  81 NW18      30.07R WCI  27
OSKALOOSA *    CLOUDY    34  32  93 NW17G26   30.12R WCI  23
CENTERVILLE *  CLOUDY    34  32  93 NW20      30.16R WCI  22
OTTUMWA        CLOUDY    35  31  85 NW22G30   30.12R WCI  23
WASHINGTON *   CLOUDY    36  36 100 NW20G26   30.07R WCI  25
$$

ABBREVIATIONS USED IN REMARKS
   TC - TEMPERATURES IN CELSIUS
  WCI - WIND CHILL INDEX
   HX - HEAT INDEX
  VSB - VISIBILITY
$$



USA.gov is the U.S. government's official web portal to all federal, state and local government web resources and services.